User: anonymous   Login
Location: Unspecified
(0.0000°N, 0.0000°E)
Time: 21:53:42
(UTC+00:00)
Language:

SJ-6H - Orbit

View from above orbital plane
View from above orbital plane
View from above satellite
View from above satellite

Ground track
Ground track

The orbit is defined by the following mean orbital elements,

1 37180U          26150.47051131 +.00000000 +00000-0 +12129-3 0 00006
2 37180  97.8680 155.7014 0010273   9.0911 351.0496 14.99275011    02
Epoch (UTC): 30 May 2026 11:17:32
Eccentricity: 0.0010273
inclination: 97.8680°
perigee height: 562 km
apogee height: 576 km
right ascension of ascending node: 155.7014°
argument of perigee: 9.0911°
revolutions per day: 14.99275011
mean anomaly at epoch: 351.0496°

The dashed part of the orbit path shows where the satellite is in the earth's shadow,  

DLR